PDT,Max TemperatureF,Mean TemperatureF,Min TemperatureF,Max Dew PointF,MeanDew PointF,Min DewpointF,Max Humidity, Mean Humidity, Min Humidity, Max Sea Level PressureIn, Mean Sea Level PressureIn, Min Sea Level PressureIn, Max VisibilityMiles, Mean VisibilityMiles, Min VisibilityMiles, Max Wind SpeedMPH, Mean Wind SpeedMPH, Max Gust SpeedMPH,PrecipitationIn, CloudCover, Events, WindDirDegrees
2012-10-1,82,76,69,35,25,20,23,16,10,30.01,29.95,29.88,10,10,10,8,5,18,0.00,0,,50
2012-10-2,81,74,68,30,26,22,24,17,13,29.88,29.85,29.82,10,10,10,9,3,16,0.00,0,,305
2012-10-3,78,72,66,30,27,22,23,19,13,29.91,29.87,29.83,10,10,10,12,4,17,0.00,0,,146
2012-10-4,72,65,59,39,32,27,46,29,22,30.04,29.97,29.88,10,10,10,10,3,16,0.00,0,,175
2012-10-5,64,58,53,45,37,30,72,47,33,30.09,30.04,30.01,10,10,10,10,5,17,0.00,0,,151
2012-10-6,64,57,50,43,37,26,66,52,29,30.03,29.98,29.92,10,10,10,13,4,18,0.00,0,,141
2012-10-7,64,58,52,44,39,32,74,53,42,29.96,29.92,29.88,10,10,10,8,3,,0.00,0,,307
2012-10-8,57,52,46,44,41,39,81,69,51,30.11,29.98,29.91,10,10,10,15,3,22,0.00,2,,162
2012-10-9,57,51,45,41,38,37,80,65,47,30.10,29.96,29.92,10,10,10,10,3,16,0.00,2,,243
2012-10-10,59,52,46,39,37,34,71,57,41,29.92,29.89,29.85,10,10,10,9,4,,0.00,2,,315
2012-10-11,64,52,44,43,40,36,90,68,39,29.99,29.85,29.78,10,10,10,7,3,,0.00,3,,315
2012-10-12,46,44,42,43,41,37,100,90,74,30.26,30.12,29.88,10,4,0,6,1,,0.01,7,Fog-Rain,200
2012-10-13,63,52,43,45,39,27,82,56,33,30.31,30.21,30.11,10,10,2,7,3,,0.00,0,,335
2012-10-14,66,60,53,45,37,29,67,44,28,30.16,30.11,30.06,10,10,10,10,4,16,0.00,0,,153
2012-10-15,70,62,55,45,36,30,57,39,24,30.07,30.02,29.96,10,10,10,7,3,,0.00,0,,181
2012-10-16,69,62,57,50,45,33,69,55,37,30.18,29.94,29.89,10,10,10,12,4,18,0.00,0,,323
2012-10-17,80,69,59,36,22,3,36,19,6,29.91,29.86,29.83,10,10,4,10,7,21,0.00,0,,34
2012-10-18,75,65,57,37,29,17,46,27,16,30.02,29.95,29.88,10,10,10,16,5,23,0.00,0,,142
2012-10-19,69,62,57,42,35,29,57,37,25,30.02,29.94,29.85,10,10,10,10,5,17,0.00,0,,160
2012-10-20,62,54,46,47,38,31,93,56,39,29.85,29.79,29.73,10,10,10,13,7,20,0.00,2,,167
2012-10-21,48,45,42,44,30,8,90,57,23,29.95,29.82,29.74,10,10,10,14,8,23,0.00,4,,162
2012-10-22,35,34,30,34,32,28,100,97,70,29.88,29.81,29.71,4,1,0,23,14,37,2.27,8,Fog-Rain-Snow,175
2012-10-23,36,33,30,34,31,30,100,95,79,30.05,29.97,29.85,10,5,0,17,11,31,0.33,7,Fog-Rain-Snow,186
2012-10-24,37,33,30,37,33,30,100,97,87,30.22,30.09,29.98,10,1,0,15,8,22,0.73,8,Fog-Rain-Snow,185
2012-10-25,48,40,35,36,33,23,100,86,49,30.27,30.23,30.20,10,4,0,10,5,18,0.00,4,Fog,142
2012-10-26,62,52,42,42,29,11,64,41,23,30.20,30.15,30.07,10,10,10,10,6,17,0.00,0,,18
2012-10-27,64,58,52,45,36,31,60,46,31,30.07,30.02,29.96,10,10,10,8,5,,0.00,0,,26
2012-10-28,63,58,54,42,35,30,57,42,32,30.04,29.99,29.95,10,10,10,9,3,16,0.00,0,,147
2012-10-29,63,58,54,39,33,25,49,39,29,30.11,30.07,30.03,10,10,10,8,4,,0.00,0,,141
2012-10-30,62,58,54,39,33,28,55,41,31,30.06,30.02,29.96,10,10,10,10,6,,0.00,0,,143
2012-10-31,55,48,42,44,39,31,100,76,41,30.08,29.99,29.92,10,6,0,17,8,23,0.19,4,Fog-Rain,153